Location: Unnamed
(25.0886°N, 121.5256°E)
Time: 09:01:39
(UTC+08:00)

ISS - Visible Passes

Search period start: 10 September 2024 00:00
Search period end: 20 September 2024 00:00
Orbit: 415 x 425 km, 51.6° (Epoch: 09 September)

Date Brightness Start Highest point End Pass type
(mag) Time Alt. Az. Time Alt. Az. Time Alt. Az.
10 Sep -2.3 03:49:50 37° ENE 03:49:50 37° ENE 03:52:31 10° ESE visible
10 Sep -3.9 18:46:21 10° SW 18:49:41 82° SE 18:53:01 10° NE visible
11 Sep -2.0 04:39:30 18° SSW 04:39:30 18° SSW 04:41:10 10° S visible
11 Sep -0.6 19:37:43 10° WNW 19:39:21 13° NW 19:40:58 10° N visible
12 Sep -1.3 18:49:13 10° W 18:51:54 22° NW 18:54:37 10° N visible
